Conway, SC

12:36 AM EDT on June 25, 2017 (GMT -0400)
Conway-Horry County

Weather History for KHYW - April, 2014

Change the Weather History Date:

Friday, April 4, 2014

  Actual Average Record
Temperature  
Mean Temperature 70 °F -  
Max Temperature 84 °F 74 °F 84 °F (2012)
Min Temperature 57 °F 49 °F 39 °F (2016)
Cooling Degree Days 6    
Growing Degree Days 20 (Base 50)    
Moisture  
Dew Point 57 °F    
Average Humidity 66    
Maximum Humidity 100    
Minimum Humidity 35    
Precipitation  
Precipitation 0.00 in - - ()
Sea Level Pressure  
Sea Level Pressure 29.93 in    
Wind  
Wind Speed 8 mph (SSW)    
Max Wind Speed 18 mph    
Max Gust Speed 28 mph    
Visibility 7 miles    
Events      
Averages and records for this station are not official NWS values.
T = Trace of Precipitation, MM = Missing Value Source: NWS Daily Summary

Daily Weather History Graph

Daily Weather History Graph

Search for Another Location

Airport or City:

Trip Planner

Search our weather history database for the weather conditions in past years. The results will help you decide how hot, cold, wet, or windy it might be!

Date:

Astronomy

Apr. 04, 2014 Rise Set
Actual Time 6:59 AM EDT 7:39 PM EDT
Civil Twilight 6:34 AM EDT 8:04 PM EDT
Nautical Twilight 6:05 AM EDT 8:34 PM EDT
Astronomical Twilight 5:34 AM EDT 9:04 PM EDT
Moon 10:25 AM EDT (4/4) No Moon Set
Length of Visible Light 13h 29m
Length of Day
12h 39m
Waxing Crescent, 25% of the Moon is Illuminated
Apr 4
Waxing Crescent
Apr 7
First Quarter
Apr 15
Full
Apr 22
Last Quarter
Apr 29
New

Hourly Weather History & Observations

Time (EDT) Temp. Heat Index Dew Point Humidity Pressure Visibility Wind Dir Wind Speed Gust Speed Precip Events Conditions
12:15 AM 64.4 °F - 53.6 °F 68% 29.99 in 10.0 mi SSW 10.4 mph - N/A   Clear
12:35 AM 64.4 °F - 53.6 °F 68% 29.99 in 10.0 mi SSW 8.1 mph - N/A   Clear
12:55 AM 62.6 °F - 53.6 °F 72% 29.99 in 10.0 mi SSW 6.9 mph - N/A   Clear
1:15 AM 62.6 °F - 55.4 °F 77% 29.98 in 10.0 mi SSW 6.9 mph - N/A   Clear
1:35 AM 62.6 °F - 57.2 °F 82% 29.98 in 10.0 mi SW 8.1 mph - N/A   Clear
1:55 AM 62.6 °F - 59.0 °F 88% 29.97 in 10.0 mi SSW 6.9 mph - N/A   Clear
2:15 AM 62.6 °F - 59.0 °F 88% 29.97 in 10.0 mi SSW 6.9 mph - N/A   Clear
2:35 AM 62.6 °F - 59.0 °F 88% 29.96 in 10.0 mi SW 6.9 mph - N/A   Clear
2:55 AM 64.4 °F - 59.0 °F 83% 29.96 in 10.0 mi SW 5.8 mph - N/A   Clear
3:15 AM 62.6 °F - 59.0 °F 88% 29.96 in 10.0 mi SW 4.6 mph - N/A   Clear
3:35 AM 62.6 °F - 60.8 °F 94% 29.95 in 10.0 mi SW 4.6 mph - N/A   Clear
3:55 AM 62.6 °F - 62.6 °F 100% 29.95 in 10.0 mi SW 3.5 mph - N/A   Clear
4:15 AM 62.6 °F - 62.6 °F 100% 29.95 in 10.0 mi SW 3.5 mph - N/A   Clear
4:35 AM 60.8 °F - 60.8 °F 100% 29.95 in 10.0 mi Calm Calm - N/A   Clear
4:55 AM 60.8 °F - 60.8 °F 100% 29.95 in 7.0 mi Calm Calm - N/A   Clear
5:15 AM 59.0 °F - 59.0 °F 100% 29.95 in 7.0 mi Calm Calm - N/A   Clear
5:35 AM 59.0 °F - 59.0 °F 100% 29.94 in 7.0 mi SSW 3.5 mph - N/A   Clear
5:55 AM 59.0 °F - 59.0 °F 100% 29.95 in 7.0 mi SSW 3.5 mph - N/A   Clear
6:15 AM 59.0 °F - 59.0 °F 100% 29.95 in 7.0 mi SSW 3.5 mph - N/A   Clear
6:35 AM 59.0 °F - 59.0 °F 100% 29.95 in 7.0 mi SSW 3.5 mph - N/A   Clear
6:55 AM 57.2 °F - 57.2 °F 100% 29.96 in 5.0 mi Calm Calm - N/A   Clear
7:15 AM 57.2 °F - 57.2 °F 100% 29.96 in 4.0 mi South 3.5 mph - N/A   Clear
7:35 AM 57.2 °F - 57.2 °F 100% 29.95 in 4.0 mi South 3.5 mph - N/A   Clear
7:55 AM 60.8 °F - 60.8 °F 100% 29.96 in 5.0 mi SSW 4.6 mph - N/A   Clear
8:15 AM 62.6 °F - 62.6 °F 100% 29.96 in 7.0 mi SSW 6.9 mph - N/A   Clear
8:35 AM 64.4 °F - 62.6 °F 94% 29.96 in 7.0 mi SSW 8.1 mph - N/A   Clear
8:55 AM 66.2 °F - 62.6 °F 88% 29.97 in 4.0 mi SW 6.9 mph - N/A   Clear
9:15 AM 68.0 °F - 59.0 °F 73% 29.96 in 7.0 mi SW 8.1 mph - N/A   Clear
9:35 AM 69.8 °F - 59.0 °F 68% 29.97 in 7.0 mi SSW 10.4 mph - N/A   Clear
9:55 AM 71.6 °F - 55.4 °F 57% 29.97 in 7.0 mi SW 12.7 mph 17.3 mph N/A   Clear
10:15 AM 73.4 °F - 53.6 °F 50% 29.97 in 5.0 mi SSW 11.5 mph 19.6 mph N/A   Haze
10:35 AM 77.0 °F - 53.6 °F 44% 29.96 in 5.0 mi SW 9.2 mph 20.7 mph N/A   Haze
10:55 AM 77.0 °F - 53.6 °F 44% 29.96 in 5.0 mi SW 9.2 mph - N/A   Haze
11:15 AM 78.8 °F - 55.4 °F 44% 29.97 in 7.0 mi SW 11.5 mph 21.9 mph N/A   Clear
11:35 AM 77.0 °F - 55.4 °F 47% 29.97 in 7.0 mi SW 12.7 mph 24.2 mph N/A   Clear
11:55 AM 77.0 °F - 53.6 °F 44% 29.97 in 7.0 mi SW 13.8 mph 21.9 mph N/A   Clear
12:15 PM 77.0 °F - 55.4 °F 47% 29.96 in 5.0 mi SW 11.5 mph 23.0 mph N/A   Haze
12:35 PM 78.8 °F - 55.4 °F 44% 29.96 in 7.0 mi SSW 11.5 mph 18.4 mph N/A   Clear
12:55 PM 78.8 °F - 55.4 °F 44% 29.96 in 7.0 mi SSW 15.0 mph 23.0 mph N/A   Clear
1:15 PM 80.6 °F 80.5 °F 55.4 °F 42% 29.96 in 7.0 mi SW 18.4 mph 25.3 mph N/A   Clear
1:35 PM 80.6 °F 80.5 °F 55.4 °F 42% 29.95 in 7.0 mi SW 15.0 mph 25.3 mph N/A   Clear
1:55 PM 80.6 °F 80.3 °F 53.6 °F 39% 29.94 in 7.0 mi SW 11.5 mph 21.9 mph N/A   Clear
2:15 PM 82.4 °F 81.4 °F 53.6 °F 37% 29.93 in 7.0 mi SW 13.8 mph 19.6 mph N/A   Clear
2:55 PM 82.4 °F - 51.8 °F 35% 29.91 in 5.0 mi SW 13.8 mph 21.9 mph N/A   Haze
3:15 PM 82.4 °F 81.4 °F 53.6 °F 37% 29.90 in 5.0 mi SW 10.4 mph 20.7 mph N/A   Haze
3:35 PM 82.4 °F 81.4 °F 53.6 °F 37% 29.90 in 7.0 mi WSW 11.5 mph 24.2 mph N/A   Clear
3:55 PM 84.2 °F 82.8 °F 53.6 °F 35% 29.90 in 7.0 mi WSW 10.4 mph 20.7 mph N/A   Clear
4:15 PM 84.2 °F 82.8 °F 53.6 °F 35% 29.89 in 7.0 mi SW 18.4 mph 27.6 mph N/A   Clear
4:55 PM 84.2 °F 82.8 °F 53.6 °F 35% 29.87 in 7.0 mi SW 12.7 mph 20.7 mph N/A   Clear
5:15 PM 82.4 °F 81.4 °F 53.6 °F 37% 29.86 in 7.0 mi SW 10.4 mph 21.9 mph N/A   Clear
5:35 PM 82.4 °F 81.4 °F 53.6 °F 37% 29.86 in 7.0 mi SW 12.7 mph 17.3 mph N/A   Clear
5:55 PM 82.4 °F 81.4 °F 53.6 °F 37% 29.86 in 7.0 mi SSW 10.4 mph 17.3 mph N/A   Clear
6:15 PM 80.6 °F 80.3 °F 53.6 °F 39% 29.86 in 7.0 mi SSW 9.2 mph - N/A   Clear
6:35 PM 80.6 °F - 51.8 °F 37% 29.86 in 7.0 mi SSW 8.1 mph 16.1 mph N/A   Clear
6:55 PM 80.6 °F - 51.8 °F 37% 29.86 in 7.0 mi SSW 9.2 mph - N/A   Clear
7:15 PM 78.8 °F - 51.8 °F 39% 29.86 in 7.0 mi SW 6.9 mph 16.1 mph N/A   Clear
7:35 PM 77.0 °F - 51.8 °F 41% 29.86 in 7.0 mi SW 5.8 mph - N/A   Clear
7:55 PM 77.0 °F - 51.8 °F 41% 29.86 in 7.0 mi SSW 6.9 mph - N/A   Clear
8:15 PM 77.0 °F - 53.6 °F 44% 29.86 in 7.0 mi South 5.8 mph - N/A   Clear
8:35 PM 71.6 °F - 60.8 °F 69% 29.86 in 7.0 mi South 9.2 mph - N/A   Clear
8:55 PM 71.6 °F - 60.8 °F 69% 29.86 in 10.0 mi South 9.2 mph - N/A   Clear
9:15 PM 69.8 °F - 60.8 °F 73% 29.86 in 10.0 mi South 9.2 mph - N/A   Clear
9:35 PM 69.8 °F - 60.8 °F 73% 29.86 in 10.0 mi South 10.4 mph - N/A   Clear
9:55 PM 69.8 °F - 59.0 °F 68% 29.86 in 10.0 mi South 9.2 mph - N/A   Clear
10:15 PM 69.8 °F - 59.0 °F 68% 29.86 in 7.0 mi South 9.2 mph - N/A   Clear
10:35 PM 69.8 °F - 59.0 °F 68% 29.87 in 7.0 mi SSW 6.9 mph - N/A   Clear
10:55 PM 68.0 °F - 57.2 °F 68% 29.87 in 7.0 mi SSW 8.1 mph - N/A   Clear
11:15 PM 69.8 °F - 57.2 °F 64% 29.88 in 7.0 mi SSW 8.1 mph - N/A   Clear
11:35 PM 69.8 °F - 57.2 °F 64% 29.89 in 7.0 mi SSW 8.1 mph - N/A   Clear
11:55 PM 69.8 °F - 57.2 °F 64% 29.89 in 7.0 mi SSW 8.1 mph - N/A   Clear